This demonstration page uses our WeatherBlox Daily Observations layout. Learn more.

Left ArrowRight Arrow

Hourly Observations for January 21, 2022

Temp ( °F °C ) Dew Point ( °F °C ) Humidity (%) Winds ( mph kmh ) Pressure ( in mb ) Visibility ( mi km ) Precip ( " mm )
12:53 am 00:53 Clear 27 -2.8 -2 -18.9 28 28 SE 6 9 30.38 1029 10 16 0.00 0.00
1:53 am 01:53 Clear 25 -3.9 -2 -18.9 30 30 SE 7 11 30.36 1028 10 16 0.00 0.00
2:53 am 02:53 Clear 23 -5 -2 -18.9 33 33 SSE 8 13 30.35 1028 10 16 0.00 0.00
3:53 am 03:53 Clear 22 -5.6 -2 -18.9 35 35 SSE 6 9 30.33 1027 10 16 0.00 0.00
4:53 am 04:53 Clear 20 -6.7 -3 -19.4 36 36 ESE 3 6 30.32 1027 10 16 0.00 0.00
5:53 am 05:53 Clear 20 -6.7 -3 -19.4 36 36 SE 7 11 30.29 1026 10 16 0.00 0.00
6:53 am 06:53 Clear 20 -6.7 -4 -20 34 34 ESE 5 7 30.29 1026 10 16 0.00 0.00
7:53 am 07:53 Sunny 17 -8.3 -5 -20.6 37 37 E 5 7 30.30 1026 10 16 0.00 0.00
8:53 am 08:53 Sunny 25 -3.9 -2 -18.9 30 30 SE 10 17 30.29 1026 10 16 0.00 0.00
9:53 am 09:53 Sunny 29 -1.7 -2 -18.9 26 26 SE 12 19 30.28 1025 10 16 0.00 0.00
10:53 am 10:53 Sunny 36 2.2 2 -16.7 23 23 SE 8 13 30.27 1025 10 16 0.00 0.00
11:53 am 11:53 Sunny 41 5 6 -14.4 23 23 SE 10 17 30.25 1024 10 16 0.00 0.00
12:53 pm 12:53 Sunny 46 7.8 14 -10 27 27 SSE 13 20 30.20 1023 10 16 0.00 0.00
1:53 pm 13:53 Sunny 48 8.9 19 -7.2 32 32 SSE 8 13 30.16 1021 10 16 0.00 0.00
2:53 pm 14:53 Sunny 51 10.6 21 -6.1 31 31 SE 14 22 30.12 1020 10 16 0.00 0.00
3:53 pm 15:53 Sunny 52 11.1 21 -6.1 30 30 SE 13 20 30.11 1020 10 16 0.00 0.00
4:53 pm 16:53 Sunny 52 11.1 21 -6.1 30 30 ESE 16 26 30.10 1019 10 16 0.00 0.00
5:53 pm 17:53 Sunny 50 10 21 -6.1 32 32 SE 14 22 30.10 1019 10 16 0.00 0.00
6:53 pm 18:53 Clear 47 8.3 19 -7.2 33 33 SE 16 26 30.12 1020 10 16 0.00 0.00
7:53 pm 19:53 Clear 44 6.7 19 -7.2 37 37 SE 16 26 30.14 1021 10 16 0.00 0.00
8:53 pm 20:53 Clear 42 5.6 19 -7.2 40 40 ESE 16 26 30.14 1021 10 16 0.00 0.00
9:53 pm 21:53 Clear 40 4.4 20 -6.7 45 45 ESE 16 26 30.15 1021 10 16 0.00 0.00
10:53 pm 22:53 Clear 39 3.9 22 -5.6 50 50 ESE 18 30 30.14 1021 10 16 0.00 0.00
11:53 pm 23:53 Clear 37 2.8 21 -6.1 52 52 ESE 17 28 30.16 1022 10 16 0.00 0.00

Powered by AerisWeather